Weather History for Billings, MT

Change the Weather History Date:

Thursday, January 31, 2013

  Actual Average Record
Temperature  
Mean Temperature 15 °F 28 °F  
Max Temperature 28 °F 38 °F 67 °F (1992)
Min Temperature 1 °F 19 °F -17 °F (1969)
Degree Days  
Heating Degree Days 50 37  
Month to date heating degree days 1138 1175  
Since 1 July heating degree days 3679 3996  
Cooling Degree Days 0 0  
Month to date cooling degree days 0 0  
Year to date cooling degree days 0 0  
Moisture  
Dew Point 7 °F    
Average Humidity 83    
Maximum Humidity 92    
Minimum Humidity 74    
Precipitation  
Precipitation 0.05 in 0.02 in 0.22 in (2014)
Month to date precipitation 0.59 0.48  
Year to date precipitation 0.59 0.48  
Snow  
Snow 1.40 in 0.20 in 5.00 in (1939)
Month to date snowfall 11.4 8.4  
Since 1 July snowfall 27.7 28.3  
Snow Depth 3.00 in    
Sea Level Pressure  
Sea Level Pressure 30.20 in    
Wind  
Wind Speed 13 mph (NE)    
Max Wind Speed 28 mph    
Max Gust Speed 32 mph    
Visibility 6 miles    
Events Snow    
T = Trace of Precipitation, MM = Missing Value Source: NWS Daily Summary

Daily Weather History Graph

Daily Weather History Graph

Search for Another Location

Airport:

Trip Planner

Search our weather history database for the weather conditions in past years. The results will help you decide how hot, cold, wet, or windy it might be!

Date:

Astronomy

Jan. 31, 2013 Rise Set
Actual Time 7:36 AM MST 5:19 PM MST
Civil Twilight 7:04 AM MST 5:51 PM MST
Nautical Twilight 6:29 AM MST 6:26 PM MST
Astronomical Twilight 5:54 AM MST 7:01 PM MST
Moon 10:44 PM MST (1/31) 9:20 AM MST (1/31)
Length of Visible Light 10h 46m
Length of Day
9h 42m
Waning Gibbous, 79% of the Moon is Illuminated
Jan 31
Waning Gibbous
Feb 3
Last Quarter
Feb 10
New
Feb 17
First Quarter
Feb 25
Full

Hourly Weather History & Observations

Time (MST) Temp. Windchill Dew Point Humidity Pressure Visibility Wind Dir Wind Speed Gust Speed Precip Events Conditions
12:53 AM 14.0 °F 0.5 °F 10.9 °F 88% 30.16 in 9.0 mi ENE 11.5 mph - 0.00 in Snow Light Snow
12:59 AM 12.9 °F -1.6 °F 10.9 °F 92% 30.02 in 7.0 mi ENE 12.7 mph - 0.00 in Snow Light Snow
1:18 AM 12.9 °F -1.6 °F 10.0 °F 88% 30.04 in 7.0 mi ENE 12.7 mph - 0.00 in Snow Light Snow
1:53 AM 10.0 °F -7.1 °F 7.0 °F 87% 30.19 in 3.0 mi ENE 16.1 mph - 0.00 in Snow Light Snow
1:58 AM 10.0 °F -5.2 °F 6.1 °F 84% 30.05 in 4.0 mi ENE 12.7 mph - 0.00 in Snow Light Snow
2:53 AM 8.1 °F -8.4 °F 5.0 °F 87% 30.24 in 4.0 mi NE 13.8 mph - 0.01 in Snow Light Snow
3:06 AM 7.0 °F -11.0 °F 3.9 °F 87% 30.08 in 2.0 mi NE 16.1 mph - 0.00 in Snow Light Snow
3:16 AM 6.1 °F -11.6 °F 1.9 °F 83% 30.09 in 1.2 mi NE 15.0 mph - 0.01 in Snow Light Snow
3:31 AM 5.0 °F -14.2 °F 1.9 °F 87% 30.09 in 1.5 mi NE 17.3 mph - 0.01 in Snow Light Snow
3:53 AM 3.9 °F -15.0 °F -0.0 °F 84% 30.28 in 1.8 mi NE 16.1 mph - 0.01 in Snow Light Snow
4:00 AM 3.2 °F -17.1 °F -0.4 °F 85% 30.11 in 2.0 mi NE 18.4 mph - N/A Snow Light Snow
4:08 AM 1.9 °F -16.9 °F -0.9 °F 88% 30.12 in 1.5 mi NE 15.0 mph - 0.01 in Snow Light Snow
4:15 AM 1.9 °F -15.5 °F -0.9 °F 88% 30.13 in 1.2 mi ENE 12.7 mph - 0.01 in Snow Light Snow
4:27 AM 1.9 °F -11.8 °F -0.9 °F 88% 30.12 in 1.5 mi ENE 8.1 mph - 0.01 in Snow Light Snow
4:44 AM 1.9 °F -10.6 °F -0.9 °F 88% 30.11 in 2.5 mi NE 6.9 mph - 0.02 in Snow Light Snow
4:53 AM 1.9 °F -10.6 °F -2.0 °F 83% 30.30 in 4.0 mi NE 6.9 mph - 0.02 in Snow Light Snow
5:39 AM 1.9 °F -12.9 °F -2.0 °F 83% 30.15 in 2.5 mi NE 9.2 mph - 0.00 in Snow Light Snow
5:46 AM 1.0 °F -11.7 °F -2.0 °F 87% 30.14 in 3.0 mi ENE 6.9 mph - 0.00 in Snow Light Snow
5:53 AM 1.0 °F -11.7 °F -2.0 °F 87% 30.32 in 6.0 mi NE 6.9 mph - 0.00 in Snow Light Snow
6:53 AM 1.0 °F -10.3 °F -2.0 °F 87% 30.34 in 5.0 mi NNE 5.8 mph - 0.00 in Snow Light Snow
7:53 AM 1.9 °F -5.6 °F -2.0 °F 83% 30.33 in 6.0 mi North 3.5 mph - 0.01 in Snow Light Snow
8:53 AM 3.0 °F -6.4 °F -0.9 °F 84% 30.33 in 5.0 mi North 4.6 mph - 0.00 in Snow Light Snow
9:01 AM 3.0 °F -8.0 °F -0.9 °F 84% 30.15 in 2.0 mi NNE 5.8 mph - 0.00 in Snow Light Snow
9:09 AM 3.0 °F -6.4 °F -0.9 °F 84% 30.15 in 4.0 mi NNE 4.6 mph - 0.00 in Snow Light Snow
9:53 AM 3.9 °F -3.4 °F -0.0 °F 84% 30.34 in 7.0 mi NNW 3.5 mph - 0.00 in Snow Light Snow
10:53 AM 6.1 °F -0.9 °F 3.0 °F 87% 30.32 in 9.0 mi South 3.5 mph - 0.00 in Snow Light Snow
11:53 AM 8.1 °F -5.3 °F 3.9 °F 83% 30.32 in 10.0 mi SSW 9.2 mph - 0.00 in   Overcast
12:53 PM 12.0 °F -4.5 °F 7.0 °F 80% 30.27 in 10.0 mi SSW 16.1 mph - N/A   Overcast
1:53 PM 15.1 °F 1.1 °F 10.0 °F 80% 30.25 in 10.0 mi SSW 12.7 mph - N/A   Mostly Cloudy
2:53 PM 17.1 °F 5.8 °F 10.9 °F 77% 30.23 in 10.0 mi SSW 9.2 mph - N/A   Overcast
3:53 PM 19.9 °F 11.1 °F 14.0 °F 78% 30.22 in 10.0 mi SW 6.9 mph - N/A   Overcast
4:53 PM 21.0 °F 7.6 °F 16.0 °F 81% 30.21 in 10.0 mi SW 15.0 mph - N/A   Overcast
5:53 PM 27.0 °F 13.2 °F 19.9 °F 75% 30.18 in 10.0 mi SW 20.7 mph - N/A   Overcast
6:53 PM 27.0 °F 13.2 °F 21.0 °F 78% 30.18 in 10.0 mi SW 20.7 mph - N/A   Overcast
7:53 PM 28.0 °F 14.3 °F 21.0 °F 75% 30.17 in 10.0 mi SW 21.9 mph - N/A   Overcast
8:53 PM 28.0 °F 14.3 °F 21.0 °F 75% 30.16 in 10.0 mi SW 21.9 mph - N/A   Overcast
9:53 PM 27.0 °F 12.5 °F 21.0 °F 78% 30.16 in 10.0 mi SW 23.0 mph - N/A   Overcast
10:53 PM 28.0 °F 13.3 °F 21.0 °F 75% 30.14 in 10.0 mi SW 25.3 mph - N/A   Overcast
11:53 PM 28.0 °F 14.9 °F 21.0 °F 75% 30.13 in 10.0 mi SW 19.6 mph - N/A   Overcast